Tracking 19638 objects as of 22-Apr-2019
HD Live streaming from Space Station
objects crossing your sky now

FLOCK 3P 10

Track FLOCK 3P 10 now!
10-day predictions
FLOCK 3P 10 is classified as:


NORAD ID: 41974
Int'l Code: 2017-008AC
Perigee: 491.0 km
Apogee: 500.8 km
Inclination: 97.4 °
Period: 94.4 minutes
Semi major axis: 6866 km
RCS: Unknown
Launch date: February 15, 2017
Source: United States (US)
Launch site: SRIHARIKOTA (SRI)
aabbcc
Your satellite tracking list
Your tracking list is empty




NASA's NSSDC Master Catalog

Two Line Element Set (TLE):
1 41974U 17008AC  19111.83896987  .00002220  00000-0  90010-4 0  9992
2 41974  97.4107 179.5875 0007103 359.5497   0.5733 15.25677500120953
Source of the keplerian elements: AFSPC